Location: Oriwa
(40.7500°S, 175.3333°E)
Time: 14:09:30
(UTC+00:00)

Cosmos 1452 Rocket - Pass Details

Date: 03 February 2023
Orbit: 765 x 775 km, 74.1° (Epoch: 31 March)

Event Time Altitude Azimuth Distance (km) Brightness Sun altitude
Rises 15:02:21 0° 198° (SSW) 3,282 7.2 -23.0°
Reaches altitude 10° 15:04:46 10° 196° (SSW) 2,346 6.4 -22.8°
Maximum altitude 15:10:07 76° 110° (ESE) 806 3.6 -22.1°
Enters shadow 15:14:26 15° 25° (NNE) 1,959 5.4 -21.6°
